1488049200.57,24559,8.13,73164.3,-13.61,-36.61,-36.43,0,*6A
1488049201.81,24560,8.06,73164.0,-13.63,-36.49,-36.19,0,*67
1488049203.08,24561,8.13,73170.3,-13.61,-36.61,-36.43,0,*61
1488049204.35,24562,8.13,73170.5,-13.61,-36.73,-36.49,0,*6B
1488049205.57,24563,8.13,73164.0,-13.63,-36.73,-36.55,0,*65
1488049206.8,24564,8.13,73170.8,-13.63,-36.73,-36.55,0,*62
1488049208.03,24565,8.13,73170.5,-13.63,-36.73,-36.67,0,*62
1488049209.25,24566,8.06,73166.5,-13.63,-36.73,-36.67,0,*61
1488049210.49,24567,8.06,73164.8,-13.63,-36.67,-36.37,0,*60
1488049211.74,24568,8.13,73164.0,-13.63,-36.55,-36.49,0,*67
1488049212.98,24569,8.06,73164.8,-13.63,-36.67,-36.37,0,*6E
1488049214.22,24570,8.13,73168.3,-13.63,-36.55,-36.37,0,*67
1488049215.46,24571,8.13,73164.0,-13.63,-36.67,-36.49,0,*6E
1488049216.71,24572,8.06,73166.8,-13.63,-36.79,-36.55,0,*6F
1488049217.96,24573,8.13,73168.8,-13.63,-36.79,-36.55,0,*6E
1488049219.18,24574,8.06,73162.3,-13.63,-36.73,-36.55,0,*63
1488049220.43,24575,8.06,73158.8,-13.63,-36.49,-36.31,0,*69
1488049221.67,24576,8.06,73162.3,-13.63,-36.55,-36.49,0,*68
1488049222.9,24577,8.06,73162.3,-13.65,-36.73,-36.55,0,*66
1488049224.12,24578,8.13,73162.3,-13.65,-36.73,-36.55,0,*69
1488049225.35,24579,8.06,73158.8,-13.65,-36.73,-36.55,0,*68
1488049226.57,24580,8.06,73160.3,-13.65,-36.67,-36.55,0,*6B
1488049227.82,24581,8.13,73162.5,-13.65,-36.67,-36.49,0,*67
1488049229.06,24582,8.06,73162.0,-13.65,-36.55,-36.49,0,*65
1488049230.3,24583,8.06,73162.0,-13.65,-36.37,-36.19,0,*65
1488049231.56,24584,8.06,73162.3,-13.65,-36.49,-36.37,0,*67
1488049232.8,24585,8.06,73162.3,-13.65,-36.55,-36.37,0,*6B
1488049234.04,24586,8.06,73158.0,-13.65,-36.67,-36.49,0,*60
1488049235.28,24587,8.13,73162.8,-13.65,-36.67,-36.49,0,*61
1488049236.53,24588,8.13,73164.0,-13.65,-36.55,-36.49,0,*6F
1488049237.77,24589,8.06,73162.5,-13.63,-36.55,-36.49,0,*68
1488049239.01,24590,8.06,73156.8,-13.63,-36.67,-36.49,0,*61
1488049240.25,24591,8.06,73156.0,-13.65,-36.67,-36.49,0,*66
1488049241.5,24592,8.06,73156.8,-13.65,-36.73,-36.49,0,*60
1488049242.74,24593,8.06,73162.0,-13.65,-36.67,-36.49,0,*64
1488049243.97,24594,8.13,73158.8,-13.65,-36.67,-36.55,0,*6E
1488049245.23,24595,8.06,73154.5,-13.65,-36.37,-36.37,0,*6E
1488049246.51,24596,8.06,73158.0,-13.67,-36.61,-36.37,0,*6C
1488049247.8,24597,8.06,73158.8,-13.67,-36.61,-36.37,0,*6D
1488049249.06,24598,8.06,73158.3,-13.65,-36.49,-36.37,0,*6A
1488049250.3,24599,8.06,73158.3,-13.65,-36.67,-36.49,0,*6E
1488049251.55,24600,8.06,73160.0,-13.65,-36.55,-36.49,0,*6C
1488049252.79,24601,8.06,73158.8,-13.63,-36.55,-36.37,0,*62
1488049254.05,24602,8.06,73154.3,-13.65,-36.49,-36.37,0,*6A
1488049255.34,24603,8.06,73154.0,-13.67,-36.61,-36.37,0,*63
1488049256.58,24604,8.13,73158.8,-13.65,-36.67,-36.49,0,*69
1488049257.82,24605,8.06,73156.8,-13.65,-36.67,-36.49,0,*68
1488049259.09,24606,8.06,73158.3,-13.65,-36.49,-36.49,0,*67
1488049260.35,24607,8.06,73154.8,-13.67,-36.55,-36.37,0,*60
1488049261.59,24608,8.06,73156.3,-13.67,-36.55,-36.43,0,*6C
1488049262.85,24609,8.13,73158.3,-13.67,-36.55,-36.37,0,*6E
1488049264.1,24610,8.06,73154.3,-13.65,-36.43,-36.25,0,*60
1488049265.37,24611,8.06,73156.5,-13.67,-36.61,-36.43,0,*63
1488049266.66,24612,8.06,73158.0,-13.67,-36.61,-36.61,0,*60
1488049267.92,24613,8.06,73156.8,-13.67,-36.73,-36.61,0,*62
1488049269.17,24614,8.06,73156.5,-13.65,-36.49,-36.31,0,*6B
1488049270.41,24615,8.13,73160.0,-13.67,-36.43,-36.07,0,*67
1488049271.62,24616,8.06,73158.3,-13.65,-36.31,-36.19,0,*6C
1488049272.9,24617,8.06,73152.8,-13.67,-36.25,-36.01,0,*63
1488049274.11,24618,8.06,73154.8,-13.65,-36.31,-36.19,0,*62
1488049275.35,24619,8.06,73156.5,-13.65,-36.37,-36.31,0,*6F
1488049276.62,24620,8.06,73156.5,-13.65,-36.37,-36.13,0,*65
1488049277.84,24621,8.06,73158.5,-13.65,-36.19,-36.01,0,*6B
1488049279.06,24622,8.06,73158.3,-13.65,-36.31,-36.31,0,*61
1488049280.32,24623,8.06,73158.5,-13.67,-36.55,-36.37,0,*66
1488049281.58,24624,8.06,73162.3,-13.65,-36.49,-36.37,0,*6E
1488049282.8,24625,8.06,73162.3,-13.65,-36.31,-36.19,0,*6C
1488049284.06,24626,8.06,73160.8,-13.67,-36.43,-36.37,0,*64
1488049285.33,24627,8.06,73160.5,-13.65,-36.49,-36.37,0,*6D
1488049286.59,24628,8.06,73162.3,-13.65,-36.37,-36.37,0,*6B
1488049287.85,24629,8.06,73160.8,-13.63,-36.49,-36.37,0,*65
1488049289.09,24630,8.06,73162.0,-13.63,-36.55,-36.37,0,*60
1488049290.33,24631,8.06,73162.0,-13.65,-36.55,-36.37,0,*67
1488049291.57,24632,8.06,73160.5,-13.65,-36.37,-36.19,0,*6C
1488049292.81,24633,8.06,73162.0,-13.65,-36.67,-36.49,0,*6D
1488049294.06,24634,8.06,73160.0,-13.65,-36.55,-36.49,0,*6B
1488049295.3,24635,8.13,73160.8,-13.65,-36.37,-36.31,0,*61
1488049296.55,24636,8.06,73158.8,-13.65,-36.19,-35.95,0,*63
1488049297.84,24637,8.06,73164.5,-13.67,-36.37,-36.25,0,*64
1488049299.09,24638,8.06,73154.3,-13.63,-35.95,-35.77,0,*60
1488049300.34,24639,8.06,73146.8,-13.63,-36.19,-35.83,0,*6D
1488049301.61,24640,8.06,73146.0,-13.61,-35.95,-35.71,0,*6B
1488049302.87,24641,8.06,73140.3,-13.63,-36.13,-35.83,0,*68
1488049304.17,24642,8.06,73138.3,-13.61,-36.13,-35.95,0,*6E
1488049305.47,24643,8.06,73142.0,-13.61,-36.13,-35.95,0,*6F
1488049306.73,24644,8.06,73148.8,-13.61,-36.31,-36.13,0,*65
1488049307.99,24645,8.06,73146.0,-13.61,-36.13,-36.07,0,*61
1488049309.26,24646,8.06,73142.0,-13.61,-36.13,-36.07,0,*62
1488049310.53,24647,8.06,73148.5,-13.61,-36.31,-36.25,0,*63
1488049311.75,24648,8.06,73148.5,-13.59,-36.43,-36.43,0,*62
1488049313.04,24649,8.06,73150.0,-13.61,-36.61,-36.49,0,*62
1488049314.31,24650,8.06,73146.8,-13.61,-36.49,-36.43,0,*6A
1488049315.58,24651,8.06,73142.3,-13.61,-36.67,-36.49,0,*6D
1488049316.87,24652,8.06,73144.3,-13.61,-36.61,-36.49,0,*68
1488049318.13,24653,8.06,73138.8,-13.61,-36.49,-36.43,0,*69
1488049319.38,24654,8.06,73140.0,-13.61,-36.67,-36.43,0,*62
1488049320.62,24655,8.06,73136.8,-13.61,-36.43,-36.31,0,*60
1488049321.89,24656,8.06,73138.8,-13.61,-36.49,-36.43,0,*6C
1488049323.16,24657,8.06,73142.8,-13.61,-36.61,-36.43,0,*67
1488049324.43,24658,8.06,73140.8,-13.61,-36.61,-36.43,0,*68
1488049325.7,24659,8.13,73144.5,-13.61,-36.61,-36.43,0,*69
1488049326.96,24660,8.06,73146.8,-13.61,-36.49,-36.31,0,*6C
1488049328.21,24661,8.06,73146.3,-13.63,-36.55,-36.49,0,*6D
1488049329.48,24662,8.06,73148.5,-13.61,-36.67,-36.49,0,*6D
1488049330.74,24663,8.06,73146.8,-13.61,-36.67,-36.49,0,*6C
1488049332.03,24664,8.06,73148.0,-13.61,-36.61,-36.49,0,*6D
1488049333.3,24665,8.06,73152.3,-13.61,-36.61,-36.43,0,*66
1488049334.53,24666,8.06,73162.0,-13.63,-36.67,-36.55,0,*66
1488049335.78,24667,8.06,73166.3,-13.63,-36.79,-36.55,0,*68
1488049337.04,24668,8.06,73164.0,-13.61,-36.49,-36.43,0,*61
1488049338.31,24669,8.06,73160.3,-13.61,-36.49,-36.43,0,*60
1488049339.58,24670,8.06,73150.8,-13.61,-36.73,-36.49,0,*6B
1488049340.81,24671,8.06,73142.3,-13.63,-36.55,-36.55,0,*61
1488049342.08,24672,8.06,73146.8,-13.61,-36.61,-36.43,0,*60
1488049343.32,24673,8.06,73152.0,-13.63,-36.79,-36.55,0,*6D
1488049344.59,24674,8.06,73146.3,-13.61,-36.49,-36.31,0,*69
1488049345.84,24675,8.06,73136.5,-13.61,-36.43,-36.31,0,*62
1488049347.1,24676,8.06,73132.8,-13.63,-36.49,-36.37,0,*6F
1488049348.34,24677,8.06,73136.3,-13.63,-36.67,-36.37,0,*62
1488049349.61,24678,8.06,73140.8,-13.61,-36.61,-36.43,0,*6A
1488049350.9,24679,8.06,73142.3,-13.61,-36.61,-36.49,0,*61
1488049352.19,24680,8.06,73138.5,-13.61,-36.49,-36.49,0,*6D
1488049353.43,24681,8.06,73142.5,-13.63,-36.55,-36.49,0,*63
1488049354.72,24682,8.06,73146.8,-13.61,-36.49,-36.49,0,*6F
1488049355.99,24683,8.06,73146.8,-13.61,-36.49,-36.43,0,*64
1488049357.23,24684,8.06,73142.0,-13.63,-36.49,-36.19,0,*6E
1488049358.51,24685,8.06,73146.5,-13.61,-36.43,-36.25,0,*68
1488049359.8,24686,8.06,73150.0,-13.61,-36.49,-36.25,0,*61
1488049361.07,24687,8.06,73146.3,-13.61,-36.43,-36.25,0,*6A
1488049362.32,24688,8.06,73144.5,-13.61,-36.31,-36.07,0,*60
1488049363.58,24689,8.06,73146.5,-13.61,-36.25,-36.07,0,*64
1488049364.8,24690,8.06,73136.8,-13.63,-36.43,-36.31,0,*6B
1488049366.08,24691,8.06,73138.3,-13.61,-36.31,-36.25,0,*68
1488049367.35,24692,8.06,73144.0,-13.61,-36.43,-36.25,0,*6E
1488049368.62,24693,8.06,73140.5,-13.61,-36.61,-36.55,0,*68
1488049369.89,24694,8.06,73148.5,-13.61,-36.67,-36.61,0,*6E
1488049371.16,24695,8.06,73148.5,-13.61,-36.61,-36.43,0,*69
1488049372.45,24696,8.06,73154.8,-13.61,-36.61,-36.49,0,*60
1488049373.74,24697,8.06,73150.8,-13.61,-36.49,-36.25,0,*61
1488049375.04,24698,8.06,73150.0,-13.61,-36.49,-36.25,0,*6E
1488049376.29,24699,8.13,73152.8,-13.61,-36.43,-36.43,0,*65
1488049377.55,24700,8.06,73152.5,-13.61,-36.67,-36.49,0,*68
1488049378.8,24701,8.06,73154.3,-13.63,-36.55,-36.49,0,*6A
1488049380.07,24702,8.06,73152.5,-13.61,-36.43,-36.25,0,*66
1488049381.34,24703,8.06,73150.5,-13.61,-36.43,-36.13,0,*62
1488049382.6,24704,8.06,73154.5,-13.61,-36.31,-36.13,0,*60
1488049383.88,24705,8.06,73156.8,-13.61,-36.43,-36.25,0,*61
1488049385.12,24706,8.06,73148.5,-13.63,-36.49,-36.19,0,*65
1488049386.36,24707,8.06,73146.0,-13.61,-36.31,-36.07,0,*66
1488049387.6,24708,8.06,73142.0,-13.61,-36.31,-36.07,0,*69
1488049388.84,24709,8.06,73142.8,-13.59,-36.49,-36.31,0,*69
1488049390.11,24710,8.06,73140.3,-13.61,-36.61,-36.31,0,*60
1488049391.36,24711,8.06,73142.8,-13.59,-36.61,-36.31,0,*6A
1488049392.6,24712,8.06,73148.5,-13.59,-36.49,-36.31,0,*63
1488049393.85,24713,8.06,73144.5,-13.59,-36.61,-36.31,0,*68
1488049395.09,24714,8.06,73150.0,-13.63,-36.67,-36.49,0,*6F
1488049396.38,24715,8.06,73144.8,-13.61,-36.49,-36.25,0,*6A
1488049397.65,24716,8.06,73148.8,-13.61,-36.61,-36.43,0,*63
1488049398.94,24717,8.06,73150.5,-13.61,-36.61,-36.49,0,*68
1488049400.21,24718,8.06,73146.0,-13.61,-36.61,-36.31,0,*68
1488049401.46,24719,8.06,73142.0,-13.59,-36.49,-36.31,0,*68
1488049402.71,24720,8.06,73144.5,-13.59,-36.43,-36.25,0,*6D
1488049403.97,24721,8.06,73146.3,-13.61,-36.67,-36.49,0,*6B
1488049405.22,24722,8.06,73144.0,-13.61,-36.73,-36.31,0,*62
1488049406.46,24723,8.06,73152.5,-13.63,-36.61,-36.43,0,*67
1488049407.73,24724,8.06,73154.8,-13.61,-36.49,-36.31,0,*6D
1488049409.0,24725,8.06,73158.0,-13.61,-36.43,-36.25,0,*63
1488049410.24,24726,8.06,73152.5,-13.61,-36.43,-36.07,0,*60
1488049411.54,24727,8.06,73154.0,-13.61,-36.49,-36.13,0,*6E
1488049412.78,24728,8.06,73158.3,-13.59,-36.49,-36.31,0,*6A
1488049414.03,24729,8.06,73158.8,-13.59,-36.43,-36.25,0,*64
1488049415.27,24730,8.06,73158.5,-13.59,-36.61,-36.31,0,*69
1488049416.54,24731,8.06,73160.8,-13.61,-36.43,-36.13,0,*63
1488049417.78,24732,8.06,73158.8,-13.61,-36.31,-36.07,0,*60
1488049419.02,24733,8.06,73164.5,-13.61,-36.43,-36.07,0,*64
1488049420.3,24734,8.06,73160.0,-13.61,-36.43,-36.25,0,*63
1488049421.57,24735,8.06,73154.8,-13.61,-36.61,-36.43,0,*62
1488049422.81,24736,8.06,73148.5,-13.59,-36.61,-36.31,0,*6F
1488049424.08,24737,8.06,73150.5,-13.61,-36.49,-36.43,0,*6A
1488049425.35,24738,8.06,73154.5,-13.61,-36.49,-36.31,0,*60
1488049426.64,24739,8.06,73146.3,-13.61,-36.49,-36.25,0,*64
1488049427.91,24740,8.06,73142.3,-13.61,-36.43,-36.25,0,*60
1488049429.18,24741,8.06,73154.5,-13.61,-36.25,-36.07,0,*61
1488049430.46,24742,8.06,73154.8,-13.61,-36.43,-36.25,0,*62
1488049431.75,24743,8.06,73152.5,-13.61,-36.49,-36.25,0,*69
1488049433.02,24744,8.06,73164.3,-13.61,-36.43,-36.25,0,*64
1488049434.29,24745,8.06,73170.3,-13.61,-36.49,-36.31,0,*6A
1488049435.54,24746,8.06,73160.3,-13.61,-36.43,-36.31,0,*63
1488049436.78,24747,8.06,73162.0,-13.63,-36.31,-36.13,0,*65
1488049438.08,24748,8.06,73160.0,-13.61,-36.25,-36.13,0,*6D
1488049439.35,24749,8.06,73160.5,-13.61,-36.31,-36.25,0,*6C
1488049440.59,24750,8.06,73154.5,-13.61,-36.43,-36.31,0,*64
1488049441.86,24751,8.06,73152.3,-13.61,-36.49,-36.31,0,*6F
1488049443.12,24752,8.06,73150.8,-13.63,-36.49,-36.37,0,*68
1488049444.39,24753,8.06,73140.8,-13.61,-36.61,-36.31,0,*67
1488049445.66,24754,8.06,73144.5,-13.61,-36.49,-36.31,0,*6A
1488049446.88,24755,8.06,73152.5,-13.59,-36.43,-36.31,0,*6A
1488049448.13,24756,8.06,73156.3,-13.59,-36.43,-36.25,0,*6C
1488049449.4,24757,8.06,73160.0,-13.61,-36.31,-36.13,0,*66
1488049450.65,24758,8.06,73156.3,-13.63,-36.19,-35.95,0,*6C
1488049451.92,24759,8.06,73152.0,-13.61,-36.31,-36.25,0,*6D
1488049453.19,24760,8.06,73152.3,-13.61,-36.43,-36.25,0,*62
1488049454.46,24761,8.06,73148.5,-13.61,-36.31,-36.25,0,*66
1488049455.71,24762,8.06,73158.5,-13.61,-36.43,-36.31,0,*65
1488049456.93,24763,8.06,73160.5,-13.63,-36.55,-36.31,0,*61
1488049458.17,24764,8.06,73160.5,-13.61,-36.43,-36.07,0,*66
1488049459.41,24765,8.06,73162.3,-13.61,-36.43,-36.07,0,*67
1488049460.71,24766,8.06,73158.8,-13.61,-36.25,-36.13,0,*61
1488049461.98,24767,8.06,73156.5,-13.61,-36.31,-36.25,0,*60
1488049463.27,24768,8.06,73154.0,-13.61,-36.13,-35.95,0,*67
1488049464.54,24769,8.06,73158.8,-13.61,-36.43,-36.13,0,*6E
1488049465.81,24770,8.06,73156.5,-13.61,-36.43,-36.13,0,*66
1488049467.05,24771,8.06,73160.0,-13.61,-36.31,-36.07,0,*67
1488049468.32,24772,8.06,73156.0,-13.61,-36.43,-36.13,0,*64
1488049469.61,24773,8.06,73158.0,-13.61,-36.25,-36.13,0,*65
1488049470.88,24774,8.06,73166.0,-13.61,-36.25,-36.07,0,*67
1488049472.15,24775,8.06,73164.5,-13.61,-36.13,-35.89,0,*66
1488049473.44,24776,8.06,73162.3,-13.61,-36.13,-36.13,0,*65
1488049474.71,24777,8.06,73160.8,-13.59,-36.25,-36.13,0,*6A
1488049475.96,24778,8.06,73164.0,-13.59,-36.25,-36.07,0,*60
1488049477.18,24779,8.06,73162.0,-13.59,-36.07,-36.01,0,*67
1488049478.43,24780,8.06,73162.8,-13.59,-36.13,-35.89,0,*67
1488049479.71,24781,8.06,73158.8,-13.57,-36.01,-35.83,0,*61
1488049480.96,24782,8.06,73154.3,-13.59,-36.07,-35.95,0,*6D
1488049482.23,24783,8.06,73156.5,-13.59,-36.25,-36.13,0,*61
1488049483.45,24784,8.06,73162.3,-13.59,-36.31,-36.31,0,*63
1488049484.7,24785,8.06,73158.0,-13.59,-36.31,-36.25,0,*67
1488049485.97,24786,8.06,73154.3,-13.59,-36.49,-36.25,0,*6B
1488049487.22,24787,8.06,73158.0,-13.59,-36.43,-36.25,0,*60
1488049488.47,24788,8.06,73160.0,-13.59,-36.49,-36.43,0,*65
1488049489.71,24789,8.06,73154.0,-13.59,-36.31,-36.13,0,*6E
1488049490.98,24790,8.06,73148.5,-13.59,-36.25,-36.13,0,*63
1488049492.23,24791,8.06,73146.5,-13.59,-36.43,-36.25,0,*67
1488049493.5,24792,8.06,73140.3,-13.57,-36.07,-36.13,0,*6F
1488049494.74,24793,8.06,73140.3,-13.59,-36.13,-36.07,0,*60
1488049496.01,24794,8.06,73144.3,-13.59,-36.25,-36.13,0,*67
1488049497.31,24795,8.06,73146.5,-13.57,-36.37,-36.25,0,*6E
1488049498.53,24796,8.06,73142.3,-13.59,-36.31,-36.31,0,*60
1488049499.75,24797,8.06,73136.3,-13.59,-36.43,-36.31,0,*64
1488049501.06,24798,8.06,73138.5,-13.57,-36.37,-36.25,0,*63
1488049502.3,24799,8.06,73144.8,-13.59,-36.31,-36.25,0,*6A
1488049503.58,24800,8.06,73146.8,-13.57,-36.25,-36.19,0,*61
1488049504.82,24801,8.06,73156.3,-13.59,-36.43,-36.13,0,*64
1488049506.07,24802,8.06,73156.5,-13.59,-36.49,-36.43,0,*68
1488049507.29,24803,8.06,73154.3,-13.59,-36.43,-36.31,0,*66
1488049508.52,24804,8.06,73154.0,-13.59,-36.13,-36.07,0,*61
1488049509.8,24805,8.06,73158.8,-13.59,-36.49,-36.25,0,*6F
1488049511.07,24806,8.06,73158.3,-13.59,-36.25,-36.25,0,*66
1488049512.29,24807,8.06,73158.3,-13.59,-36.43,-36.43,0,*67
1488049513.56,24808,8.06,73158.5,-13.57,-36.37,-36.19,0,*6A
1488049514.82,24809,8.06,73150.3,-13.57,-36.19,-36.01,0,*6E
1488049516.09,24810,8.06,73152.3,-13.59,-36.25,-36.13,0,*64
1488049517.39,24811,8.06,73154.0,-13.57,-36.37,-36.25,0,*6D
1488049518.69,24812,8.06,73156.0,-13.57,-36.25,-36.25,0,*6D
1488049519.94,24813,8.06,73162.0,-13.59,-36.49,-36.31,0,*6D
1488049521.18,24814,8.06,73158.0,-13.59,-36.61,-36.43,0,*65
1488049522.49,24815,8.06,73162.5,-13.57,-36.37,-36.25,0,*69
1488049523.73,24816,8.06,73166.0,-13.59,-36.31,-36.13,0,*67
1488049524.97,24817,8.06,73162.5,-13.59,-36.13,-36.07,0,*63
1488049526.21,24818,8.06,73160.0,-13.57,-36.19,-36.07,0,*68
1488049527.46,24819,8.06,73160.8,-13.59,-36.25,-36.07,0,*68
1488049528.73,24820,8.06,73152.3,-13.59,-36.25,-36.13,0,*67
1488049530.03,24821,8.06,73156.8,-13.57,-36.37,-36.25,0,*6E
1488049531.28,24822,8.06,73154.3,-13.59,-36.43,-36.25,0,*60
1488049532.55,24823,8.06,73152.8,-13.57,-36.25,-36.07,0,*6F
1488049533.8,24824,8.06,73152.8,-13.59,-36.25,-36.07,0,*66
1488049535.07,24825,8.06,73162.3,-13.57,-36.25,-36.07,0,*69
1488049536.34,24826,8.06,73160.3,-13.57,-36.37,-36.07,0,*69
1488049537.62,24827,8.06,73160.8,-13.57,-36.25,-36.01,0,*6D
1488049538.85,24828,8.06,73158.8,-13.59,-36.19,-36.01,0,*63
1488049540.12,24829,8.06,73162.8,-13.57,-36.37,-36.07,0,*66
1488049541.36,24830,8.06,73158.0,-13.57,-36.19,-36.07,0,*62
1488049542.61,24831,8.06,73154.3,-13.57,-36.19,-36.07,0,*63
1488049543.91,24832,8.06,73158.8,-13.57,-36.37,-36.25,0,*6C
1488049545.18,24833,8.06,73158.3,-13.57,-36.25,-36.19,0,*61
1488049546.44,24834,8.06,73160.3,-13.57,-36.07,-36.01,0,*6F
1488049547.65,24835,8.06,73160.3,-13.55,-36.19,-36.19,0,*6A
1488049548.92,24836,8.06,73160.0,-13.57,-36.37,-36.19,0,*67
1488049550.16,24837,8.06,73156.0,-13.55,-36.43,-36.25,0,*68
1488049551.43,24838,8.06,73160.8,-13.57,-36.37,-36.19,0,*69
1488049552.71,24839,8.06,73162.3,-13.57,-36.37,-36.19,0,*68
1488049553.98,24840,8.06,73168.0,-13.57,-36.37,-36.19,0,*66
1488049555.25,24841,8.06,73166.5,-13.57,-36.25,-36.19,0,*64
1488049556.53,24842,8.06,73164.3,-13.57,-36.25,-36.01,0,*6E
1488049557.78,24843,8.06,73160.0,-13.57,-36.19,-36.19,0,*69
1488049559.05,24844,8.06,73164.8,-13.57,-36.61,-36.43,0,*6E
1488049560.3,24845,8.06,73168.3,-13.57,-36.43,-36.43,0,*6F
1488049561.55,24846,8.06,73170.3,-13.59,-36.61,-36.43,0,*62
1488049562.83,24847,8.06,73164.3,-13.57,-36.43,-36.25,0,*6D
1488049564.06,24848,8.06,73156.3,-13.55,-36.37,-36.19,0,*6C
1488049565.34,24849,8.06,73156.8,-13.57,-36.25,-36.19,0,*6C
1488049566.61,24850,8.06,73158.3,-13.57,-35.89,-35.83,0,*61
1488049567.86,24851,8.06,73158.0,-13.57,-36.01,-35.71,0,*6E
1488049569.1,24852,8.06,73148.5,-13.55,-36.01,-35.83,0,*62
1488049570.32,24853,8.06,73154.8,-13.55,-36.19,-36.01,0,*63
1488049571.55,24854,8.06,73154.0,-13.55,-36.07,-36.01,0,*6B
1488049572.8,24855,8.06,73152.8,-13.53,-36.01,-35.89,0,*69
1488049574.09,24856,8.06,73148.5,-13.53,-35.95,-35.65,0,*66
1488049575.33,24857,8.06,73148.5,-13.55,-35.89,-35.83,0,*64
1488049576.6,24858,8.06,73148.8,-13.53,-35.95,-35.59,0,*67
1488049577.88,24859,8.06,73156.3,-13.53,-35.83,-35.77,0,*6D
1488049579.16,24860,8.06,73158.5,-13.53,-36.13,-36.13,0,*6C
1488049580.43,24861,8.06,73162.3,-13.55,-36.37,-36.25,0,*68
1488049581.67,24862,8.06,73156.3,-13.55,-36.37,-36.19,0,*64
1488049582.91,24863,8.06,73156.5,-13.53,-36.19,-36.01,0,*66
1488049584.2,24864,8.06,73156.0,-13.53,-36.13,-36.13,0,*68
1488049585.44,24865,8.06,73160.8,-13.53,-36.31,-36.19,0,*63
1488049586.73,24866,8.06,73162.5,-13.53,-36.49,-36.37,0,*63
1488049588.0,24867,8.06,73162.0,-13.53,-36.31,-36.13,0,*6B
1488049589.23,24868,8.06,73162.8,-13.53,-36.19,-36.19,0,*64
1488049590.47,24869,8.06,73162.8,-13.53,-36.31,-36.19,0,*6F
1488049591.77,24870,8.06,73162.5,-13.53,-36.13,-35.95,0,*60
1488049593.03,24871,8.06,73164.0,-13.53,-36.19,-36.13,0,*66
1488049594.31,24872,8.06,73160.5,-13.53,-36.01,-35.95,0,*61
1488049595.55,24873,8.06,73166.0,-13.53,-36.31,-36.19,0,*64
1488049596.81,24874,8.06,73162.5,-13.53,-36.49,-36.19,0,*6C
1488049598.06,24875,8.06,73156.5,-13.53,-36.01,-36.01,0,*68
1488049599.33,24876,8.06,73164.3,-13.53,-36.31,-36.13,0,*6B
1488049600.6,24877,8.06,73162.8,-13.53,-36.13,-36.01,0,*69
1488049601.84,24878,8.06,73162.3,-13.53,-36.19,-36.01,0,*6C
1488049603.11,24879,8.06,73166.0,-13.53,-36.37,-36.31,0,*62
1488049604.38,24880,8.06,73164.5,-13.53,-36.37,-36.31,0,*64
1488049605.64,24881,8.06,73162.8,-13.53,-36.49,-36.31,0,*6C
1488049606.93,24882,8.06,73164.5,-13.53,-36.49,-36.37,0,*69
1488049608.22,24883,8.06,73162.5,-13.53,-36.37,-36.13,0,*67
1488049609.49,24884,8.06,73166.3,-13.55,-36.37,-36.25,0,*63
1488049610.73,24885,8.06,73164.8,-13.55,-36.55,-36.37,0,*65
1488049611.94,24886,8.06,73166.3,-13.55,-36.43,-36.19,0,*6D
1488049613.18,24887,8.06,73166.0,-13.55,-36.25,-36.19,0,*6C
1488049614.47,24888,8.06,73166.5,-13.53,-36.37,-36.37,0,*6A
1488049615.71,24889,8.06,73162.5,-13.55,-36.37,-36.19,0,*61
1488049616.95,24890,8.06,73162.0,-13.55,-36.55,-36.25,0,*62
1488049618.24,24891,8.06,73164.5,-13.53,-36.37,-36.37,0,*62
1488049619.48,24892,8.06,73164.8,-13.53,-36.19,-36.19,0,*61
1488049620.74,24893,8.06,73164.5,-13.53,-36.37,-36.19,0,*6C
1488049622.0,24894,8.06,73166.0,-13.53,-36.37,-36.19,0,*6B
1488049623.27,24895,8.06,73164.5,-13.53,-36.49,-36.31,0,*69
1488049624.54,24896,8.06,73164.3,-13.53,-36.37,-36.31,0,*63
1488049625.78,24897,8.06,73164.5,-13.53,-36.31,-36.19,0,*6E
1488049627.05,24898,8.06,73166.8,-13.53,-36.31,-36.13,0,*6B
1488049628.31,24899,8.06,73168.3,-13.55,-36.37,-36.25,0,*6F
1488049629.56,24900,8.06,73164.0,-13.53,-36.31,-36.19,0,*61
1488049630.79,24901,8.06,73166.0,-13.55,-36.43,-36.37,0,*6F
1488049632.03,24902,8.06,73170.5,-13.55,-36.61,-36.43,0,*6F
1488049633.28,24903,8.06,73170.5,-13.55,-36.43,-36.25,0,*6E
1488049634.52,24904,8.06,73168.0,-13.55,-36.55,-36.25,0,*6E
1488049635.76,24905,8.06,73170.3,-13.55,-36.43,-36.37,0,*6B
1488049637.0,24906,8.06,73166.0,-13.55,-36.25,-36.19,0,*64
1488049638.24,24907,8.06,73168.5,-13.55,-36.55,-36.37,0,*6E
1488049639.47,24908,8.06,73170.5,-13.55,-36.43,-36.37,0,*66
1488049640.71,24909,8.06,73164.3,-13.55,-36.61,-36.43,0,*64
1488049641.95,24910,8.06,73166.8,-13.55,-36.61,-36.43,0,*6C
1488049643.22,24911,8.06,73166.8,-13.55,-36.61,-36.37,0,*6E
1488049644.45,24912,8.06,73164.5,-13.55,-36.55,-36.37,0,*6A
1488049645.68,24913,8.06,73166.8,-13.55,-36.55,-36.55,0,*6F
1488049646.96,24914,8.06,73164.8,-13.57,-36.61,-36.55,0,*6D
1488049648.21,24915,8.06,73170.3,-13.57,-36.67,-36.55,0,*6A
1488049649.46,24916,8.06,73170.5,-13.57,-36.43,-36.43,0,*68
1488049650.71,24917,8.06,73164.0,-13.55,-36.43,-36.25,0,*6B
1488049651.92,24918,8.06,73166.8,-13.55,-36.43,-36.43,0,*64
1488049653.14,24919,8.06,73164.8,-13.55,-36.55,-36.43,0,*62
1488049654.42,24920,8.06,73166.3,-13.57,-36.61,-36.55,0,*6A
1488049655.64,24921,8.06,73164.5,-13.55,-36.55,-36.43,0,*69
1488049656.88,24922,8.06,73162.8,-13.55,-36.55,-36.37,0,*69
1488049658.09,24923,8.06,73168.0,-13.55,-36.43,-36.43,0,*6C
1488049659.34,24924,8.06,73168.3,-13.57,-36.43,-36.43,0,*69
1488049660.59,24925,8.06,73166.3,-13.57,-36.43,-36.43,0,*68
1488049661.85,24926,8.06,73166.5,-13.57,-36.55,-36.43,0,*6C
1488049663.1,24927,8.06,73164.3,-13.57,-36.55,-36.43,0,*6D
1488049664.35,24928,8.06,73164.3,-13.57,-36.67,-36.43,0,*63
1488049665.56,24929,8.06,73164.5,-13.55,-36.55,-36.43,0,*61
1488049666.82,24930,8.06,73164.5,-13.57,-36.55,-36.55,0,*6C
1488049668.09,24931,8.06,73168.3,-13.59,-36.61,-36.61,0,*63
1488049669.36,24932,8.06,73166.0,-13.57,-36.55,-36.37,0,*6A
1488049670.63,24933,8.06,73166.3,-13.57,-36.55,-36.37,0,*6B
1488049671.93,24934,8.06,73164.0,-13.57,-36.61,-36.61,0,*68
1488049673.19,24935,8.06,73164.3,-13.57,-36.67,-36.55,0,*68
1488049674.43,24936,8.06,73164.0,-13.59,-36.67,-36.61,0,*62
1488049675.7,24937,8.06,73166.3,-13.59,-36.61,-36.49,0,*6F
1488049676.92,24938,8.06,73164.5,-13.59,-36.67,-36.67,0,*6A
1488049678.16,24939,8.06,73164.8,-13.59,-36.67,-36.61,0,*6D
1488049679.41,24940,8.06,73166.3,-13.59,-36.67,-36.61,0,*63
1488049680.68,24941,8.06,73166.3,-13.59,-36.49,-36.61,0,*6E
1488049681.9,24942,8.06,73164.5,-13.59,-36.43,-36.43,0,*67
1488049683.17,24943,8.06,73168.5,-13.57,-36.61,-36.43,0,*68
1488049684.42,24944,8.06,73166.8,-13.59,-36.67,-36.49,0,*6D
1488049685.66,24945,8.0,73162.8,-13.59,-36.61,-36.43,0,*60
1488049686.93,24946,8.06,73164.5,-13.57,-36.43,-36.37,0,*6E
1488049688.18,24947,8.06,73166.5,-13.59,-36.67,-36.49,0,*6E
1488049689.42,24948,8.06,73166.5,-13.59,-36.49,-36.43,0,*67
1488049690.64,24949,8.06,73166.3,-13.59,-36.43,-36.43,0,*6C
1488049691.91,24950,8.06,73166.3,-13.59,-36.61,-36.49,0,*6E
1488049693.15,24951,8.06,73164.3,-13.59,-36.67,-36.61,0,*63
1488049694.42,24952,8.06,73168.3,-13.59,-36.61,-36.49,0,*6C
1488049695.64,24953,8.06,73166.0,-13.59,-36.43,-36.43,0,*67
1488049696.88,24954,8.06,73168.8,-13.59,-36.67,-36.49,0,*6C
1488049698.13,24955,8.06,73164.0,-13.59,-36.61,-36.43,0,*61
1488049699.42,24956,8.06,73164.3,-13.61,-36.61,-36.49,0,*63
1488049700.69,24957,8.06,73166.5,-13.61,-36.67,-36.49,0,*64
1488049701.98,24958,8.06,73164.3,-13.61,-36.49,-36.49,0,*67